Regional Weather Roundup
Issued by NWS

Home | Current Version | Previous Version | Text Only | Print | Product List | Glossary On
Versions: 1 2 3 4 5 6 7 8 9 10 11 12 13 14 15 16 17 18 19 20 21 22 23 24 25 26 27 28 29 30 31 32 33 34 35 36 37 38 39 40 41 42 43 44 45 46 47 48 49 50
000
ASUS45 KABQ 020110
RWRNM
NEW MEXICO REGIONAL WEATHER ROUNDUP
NATIONAL WEATHER SERVICE ALBUQUERQUE NM
700 PM MDT SUN MAY 01 2016

NOTE: "FAIR" MEANS FEW OR NO CLOUDS BELOW 12,000 FEET AGL WITH NO
       SIGNIFICANT WEATHER OR OBSTRUCTIONS TO VISION.

      THIS PRODUCT IS RELEASED AS TWO VERSIONS.  ONE VERSION NEAR
      THE TOP OF THE HOUR CONTAINING PRELIMINARY DATA FROM ALBUQUERQUE
      AND OTHER STATIONS.  A FINAL VERSION WITH ADDITIONAL DATA IS
      ISSUED ABOUT 10 MINUTES AFTER THE HOUR.

NMZ501-503-504-510>518-020200-
NORTHWEST PLATEAU/NORTHCENTRAL MOUNTAINS

CITY           SKY/WX    TMP DP  RH WIND       PRES   REMARKS
FARMINGTON     PTSUNNY   44  40  85 NE12      30.10R
LOS ALAMOS     FAIR      40  33  76 S8        30.18R WCI  34
SANTA FE       MOCLDY    44  31  60 SE14      30.16R
TAOS           MOCLDY    41  28  60 S5        30.17S
ANGEL FIRE     CLOUDY    34  23  64 NE7       30.21R WCI  28

$$
NMZ402-403-502-505>509-020200-
WESTCENTRAL MOUNTAINS/SOUTHWEST MOUNTAINS

CITY           SKY/WX    TMP DP  RH WIND       PRES   REMARKS
GALLUP         FAIR      46  37  71 S10       30.10R
GRANTS         CLOUDY    36  35  98 SE14G21   30.16S WCI  27
SILVER CITY      N/A     63  23  22 SW10      30.02R

$$
NMZ407-409-411-412-020200-
SOUTHERN DESERTS

CITY           SKY/WX    TMP DP  RH WIND       PRES   REMARKS
LORDSBURG      CLOUDY    68  25  19 CALM      29.94R
DEMING         CLOUDY    64  31  28 E21G33    29.96R
LAS CRUCES     FAIR      62  30  29 SE15      30.01R
HOLLOMAN AFB   FAIR      64  31  29 NW8       30.01R
ALAMOGORDO     FAIR      63  28  27 NW6       30.02S
T OR C         LGT RAIN  50  37  61 N17G30    30.06R

$$
NMZ519>523-020200-
CENTRAL VALLEYS/CENTRAL HIGHLANDS

CITY           SKY/WX    TMP DP  RH WIND       PRES   REMARKS
ALBUQUERQUE    LGT RAIN  45  31  58 E20G25    30.17R
DOUBLE EAGLE   LGT RAIN  39  36  87 SE9G17    30.19R WCI  33
MORIARTY ARPT  CLOUDY    39  29  68 E15G21    30.21S WCI  30
CLINES CORNERS CLOUDY    33  29  85 E17       30.19R WCI  22
BELEN          LGT RAIN  43  37  81 NW8       30.18R
SOCORRO        DRIZZLE   45  36  69 CALM      30.15R

$$
NMZ524>526-539-540-020200-
SOUTHCENTRAL MOUNTAINS

CITY           SKY/WX    TMP DP  RH WIND       PRES   REMARKS
RUIDOSO        FOG       34  32  93 SE9       30.22R VSB 1/2 WCI  26

$$
NMZ527>531-020200-
NORTHEAST HIGHLANDS/NORTHEAST PLAINS

CITY           SKY/WX    TMP DP  RH WIND       PRES   REMARKS
LAS VEGAS      CLOUDY    34  30  85 E10       30.23R WCI  26
RATON          FAIR      38  26  62 N15       30.22R WCI  29
CLAYTON        MOCLDY    37  35  92 N20       30.22R WCI  27

$$
NMZ532>537-020200-
EASTCENTRAL PLAINS

CITY           SKY/WX    TMP DP  RH WIND       PRES   REMARKS
TUCUMCARI      CLOUDY    44  38  79 NE12      30.23R
CANNON AFB     CLOUDY    42  37  81 NE16      30.20S
CLOVIS AIRPORT CLOUDY    43  34  70 N16G23    30.22R

$$
NMZ028-029-538-020200-
SOUTHEAST PLAINS

CITY           SKY/WX    TMP DP  RH WIND       PRES   REMARKS
ROSWELL        CLOUDY    46  40  79 N10       30.21R
ARTESIA        CLOUDY    48  37  66 N14       30.21R
CARLSBAD       CLOUDY    49  39  68 N18       30.18R
HOBBS          CLOUDY    48  36  61 N22       30.17R


$$




USA.gov is the U.S. government's official web portal to all federal, state and local government web resources and services.